Tracking 30101 objects as of 13-Dec-2024
HD Live streaming from Space Station
objects crossing your sky now

STARLINK-30214

Track STARLINK-30214 now!
10-day predictions
STARLINK-30214 is classified as:


NORAD ID: 57411
Int'l Code: 2023-102H
Perigee: 565.5 km
Apogee: 567.0 km
Inclination: 43.0 °
Period: 95.8 minutes
Semi major axis: 6937 km
RCS: Unknown
Launch date: July 20, 2023
Source: United States (US)
Launch site: AIR FORCE WESTERN TEST RANGE (AFWTR)
Your satellite tracking list
Your tracking list is empty




NASA's NSSDC Master Catalog

Two Line Element Set (TLE):
1 57411U 23102H   24347.92351156  .00001487  00000-0  12516-3 0  9996
2 57411  43.0026 183.2550 0001100 261.9532  98.1185 15.02532975 78274
Source of the keplerian elements: AFSPC